Regional Weather Roundup
Issued by NWS

Home | Current Version | Previous Version | Graphics & Text | Print | Product List | Glossary On
Versions: 1 2 3 4 5 6 7 8 9 10 11 12 13 14 15 16 17 18 19 20 21 22 23 24 25 26 27 28 29 30 31 32 33 34 35 36 37 38 39 40 41 42 43 44 45 46 47 48 49 50
000
ASUS45 KABQ 221701
RWRNM
WEATHER ROUNDUP FOR NEW MEXICO
NATIONAL WEATHER SERVICE ALBUQUERQUE NM
1100 AM MDT TUE JUL 22 2014

NOTE: "FAIR" MEANS FEW OR NO CLOUDS BELOW 12,000 FEET AGL WITH NO
       SIGNIFICANT WEATHER OR OBSTRUCTIONS TO VISION.

      THIS PRODUCT IS RELEASED AS TWO VERSIONS.  ONE VERSION NEAR
      THE TOP OF THE HOUR CONTAINING PRELIMINARY DATA FROM ALBUQUERQUE
      AND OTHER STATIONS.  A FINAL VERSION WITH ADDITIONAL DATA IS
      ISSUED ABOUT 10 MINUTES AFTER THE HOUR.

NMZ501-503-504-510>518-221800-
NORTHWEST PLATEAU/NORTHCENTRAL MOUNTAINS

CITY           SKY/WX    TMP DP  RH WIND       PRES   REMARKS
FARMINGTON     SUNNY     85  36  17 VRB3      30.30S
LOS ALAMOS     MOSUNNY   77  49  37 NE7       30.45S
SANTA FE       SUNNY     83  48  29 NW12      30.36F
TAOS           SUNNY     79  45  29 N6        30.46S
ANGEL FIRE     FAIR      74  49  40 N6        30.55S

$$
NMZ402-403-502-505>509-221800-
WESTCENTRAL MOUNTAINS/SOUTHWEST MOUNTAINS

CITY           SKY/WX    TMP DP  RH WIND       PRES   REMARKS
GALLUP         MOSUNNY   87  33  14 E9        30.39S
GRANTS         PTSUNNY   83  40  21 N7        30.41R

$$
NMZ407-409-411-412-221800-
SOUTHERN DESERTS

CITY           SKY/WX    TMP DP  RH WIND       PRES   REMARKS
LORDSBURG      FAIR      90  48  24 W8        30.19S
DEMING         SUNNY     90  49  24 CALM      30.19S
LAS CRUCES     SUNNY     89  50  26 S3        30.21F
HOLLOMAN AFB   SUNNY     92  55  29 S3        30.17S
T OR C         SUNNY     90  46  21 W3        30.22S

$$
NMZ519>523-221800-
CENTRAL VALLEYS/CENTRAL HIGHLANDS

CITY           SKY/WX    TMP DP  RH WIND       PRES   REMARKS
ALBUQUERQUE    PTSUNNY   87  50  27 N5        30.29S
DOUBLE EAGLE   PTSUNNY   82  52  34 VRB5      30.34S
MORIARTY ARPT  FAIR      83  53  35 CALM      30.37S
CLINES CORNERS SUNNY     82  51  34 N6        30.41R
BELEN          FAIR      85  50  29 NW3       30.28S
SOCORRO        FAIR      91  48  22 N3        30.23S

$$
NMZ524>526-539-540-221800-
SOUTHCENTRAL MOUNTAINS

CITY           SKY/WX    TMP DP  RH WIND       PRES   REMARKS
RUIDOSO        NOT AVBL

$$
NMZ527>531-221800-
NORTHEAST HIGHLANDS/NORTHEAST PLAINS

CITY           SKY/WX    TMP DP  RH WIND       PRES   REMARKS
LAS VEGAS      SUNNY     81  52  36 VRB7      30.40S
RATON          SUNNY     89  44  20 NE14      30.34S
CLAYTON        SUNNY     91  49  23 N15       30.25R

$$
NMZ532>537-221800-
EASTCENTRAL PLAINS

CITY           SKY/WX    TMP DP  RH WIND       PRES   REMARKS
TUCUMCARI      SUNNY     83  65  54 S5        30.22R
CANNON AFB     MOSUNNY   78  64  62 CALM      30.27R
CLOVIS AIRPORT NOT AVBL

$$
NMZ028-029-538-221800-
SOUTHEAST PLAINS

CITY           SKY/WX    TMP DP  RH WIND       PRES   REMARKS
ROSWELL        MOSUNNY   87  66  49 SE13      30.18S
ARTESIA        SUNNY     86  68  54 SE8       30.18S
CARLSBAD       SUNNY     89  67  47 SE9       30.15S
HOBBS          MOSUNNY   84  66  54 SE12      30.21R


$$


USA.gov is the U.S. government's official web portal to all federal, state and local government web resources and services.